Regional Weather Roundup
Issued by NWS Little Rock, AR

Home | Current Version | Previous Version | Graphics & Text | Print | Product List | Glossary On
Versions: 1 2 3 4 5 6 7 8 9 10 11 12 13 14 15 16 17 18 19 20 21 22 23 24 25 26 27 28 29 30 31 32 33 34 35 36 37 38 39 40 41 42 43 44 45 46 47 48 49
000
ASUS44 KLZK 311205
RWRLZK

WEATHER ROUNDUP FOR ARKANSAS
NATIONAL WEATHER SERVICE LITTLE ROCK AR
700 AM CDT FRI JUL 31 2015

NOTE: "FAIR" INDICATES FEW OR NO CLOUDS BELOW 12,000 FEET WITH NO
SIGNIFICANT WEATHER AND/OR OBSTRUCTIONS TO VISIBILITY.

ARZ001-003-010-029-311300-
NORTHWEST ARKANSAS

CITY           SKY/WX    TMP DP  RH WIND       PRES   REMARKS
FAYETTEVILLE   MOCLDY    66  65  96 CALM      30.18R
6HR MIN TEMP:  65; 6HR MAX TEMP:  67;

FORT SMITH     CLEAR     72  67  84 E5        30.13R
6HR MIN TEMP:  72; 6HR MAX TEMP:  78;

HARRISON       CLEAR     64  63  96 CALM      30.19R
6HR MIN TEMP:  62; 6HR MAX TEMP:  69;

BENTONVILLE    MOCLDY    72  63  73 S3        30.19R
6HR MIN TEMP:  70; 6HR MAX TEMP:  72;

ROGERS         MOCLDY    71  64  78 SE3       30.19R
6HR MIN TEMP:  68; 6HR MAX TEMP:  73;

SILOAM SPGS    MOCLDY    70  61  73 E5        30.17R
6HR MIN TEMP:  70; 6HR MAX TEMP:  72;

HIGHFILL       CLOUDY    71  67  87 CALM      30.18R
6HR MIN TEMP:  68; 6HR MAX TEMP:  75;

SPRINGDALE     MOCLDY    68  64  88 CALM      30.20R
$$

ARZ004-005-016-311300-
NORTH CENTRAL ARKANSAS

CITY           SKY/WX    TMP DP  RH WIND       PRES   REMARKS
BATESVILLE     CLEAR     66  64  94 NW5       30.13S
6HR MIN TEMP:  66; 6HR MAX TEMP:  70;

FLIPPIN        PTCLDY    64  61  88 CALM      30.15S
6HR MIN TEMP:  64; 6HR MAX TEMP:  70;

MTN HOME       CLEAR     66  64  93 CALM      30.16R
6HR MIN TEMP:  64; 6HR MAX TEMP:  69;

$$

ARZ040-041-311300-
WEST CENTRAL ARKANSAS

CITY           SKY/WX    TMP DP  RH WIND       PRES   REMARKS
MENA           CLEAR     68  66  94 CALM      30.15R
MOUNT IDA      MOCLDY    66  65  96 CALM      30.11R FOG
6HR MIN TEMP:  66; 6HR MAX TEMP:  72;

$$

ARZ009-017-025-026-028-311300-
NORTHEAST ARKANSAS

CITY           SKY/WX    TMP DP  RH WIND       PRES   REMARKS
JONESBORO      CLEAR     71  63  75 N5        30.11R
6HR MIN TEMP:  70; 6HR MAX TEMP:  73;

NEWPORT        CLEAR     68  66  93 N5        30.13R
6HR MIN TEMP:  66; 6HR MAX TEMP:  71;

WALNUT RIDGE   CLEAR     68  63  83 N3        30.11S
6HR MIN TEMP:  66; 6HR MAX TEMP:  72;

BLYTHEVILLE    CLEAR    N/A N/A N/A CALM      30.11R
$$

ARZ022-023-033-042-044-311300-
CENTRAL ARKANSAS

CITY           SKY/WX    TMP DP  RH WIND       PRES   REMARKS
LITTLE ROCK    PTCLDY    73  62  68 N6        30.10S
6HR MIN TEMP:  71; 6HR MAX TEMP:  75;

N LITTLE ROCK    N/A     73  64  72 N8        30.10S
6HR MIN TEMP:  72; 6HR MAX TEMP:  74;

JACKSONVILLE   CLEAR     68  64  85 W2        30.11R
6HR MIN TEMP:  66; 6HR MAX TEMP:  71;

SEARCY         CLEAR     70  64  81 N6        30.12S
6HR MIN TEMP:  69; 6HR MAX TEMP:  74;

HOT SPRINGS    CLEAR     69  64  84 CALM      30.12R
6HR MIN TEMP:  68; 6HR MAX TEMP:  76;

RUSSELLVILLE   CLEAR     66  65  96 CALM      30.12S
6HR MIN TEMP:  66; 6HR MAX TEMP:  72;

CLINTON        FAIR      64  64 100 CALM      30.16R
$$

ARZ036-311300-
EAST ARKANSAS

CITY           SKY/WX    TMP DP  RH WIND       PRES   REMARKS
WEST MEMPHIS   CLEAR     70  68  93 N5        30.08S
6HR MIN TEMP:  67; 6HR MAX TEMP:  71;

$$

ARZ050-053-066-070-073-311300-
SOUTHWEST ARKANSAS

CITY           SKY/WX    TMP DP  RH WIND       PRES   REMARKS
ARKADELPHIA    FAIR      67  66  96 CALM      30.10R
6HR MIN TEMP:  66; 6HR MAX TEMP:  76;

CAMDEN         CLEAR     64  61  88 CALM      30.09R
TEXARKANA      CLEAR     71  67  87 NE3       30.10R
6HR MIN TEMP:  70; 6HR MAX TEMP:  76;

EL DORADO      PTCLDY    68  64  87 CALM      30.08R
6HR MIN TEMP:  67; 6HR MAX TEMP:  73;

DE QUEEN       FOG       67  67 100 CALM      30.09S VSB<1/4
6HR MIN TEMP:  67; 6HR MAX TEMP:  73;

$$

ARZ056-057-069-311300-
SOUTHEAST ARKANSAS

CITY           SKY/WX    TMP DP  RH WIND       PRES   REMARKS
PINE BLUFF     PTCLDY    72  66  81 N6        30.09R
6HR MIN TEMP:  70; 6HR MAX TEMP:  75;

STUTTGART      CLEAR     70  64  83 MISG      30.08S
6HR MIN TEMP:  68; 6HR MAX TEMP:  72;

MONTICELLO     CLEAR     71  66  84 CALM      30.08R
6HR MIN TEMP:  69; 6HR MAX TEMP:  77;


$$





USA.gov is the U.S. government's official web portal to all federal, state and local government web resources and services.